Location: Kumla
(59.1265°N, 15.1401°E)
Time: 16:19:42
(UTC+01:00)

A-11 Canister half - Pass Details

Date: 10 December 2023
Orbit: 1512 x 1687 km, 47.2° (Epoch: 25 February)

Event Time Altitude Azimuth Distance (km) Brightness Sun altitude
Rises 05:10:05 0° 278° (W) 4,834 - -24.8°
Reaches altitude 10° 05:14:05 10° 265° (W) 3,874 - -24.3°
Exits shadow 05:19:37 21° 231° (SW) 3,100 10.2 -23.6°
Maximum altitude 05:20:58 22° 220° (SW) 3,069 10.2 -23.4°
Drops below altitude 10° 05:27:58 10° 175° (S) 3,936 11.3 -22.5°
Sets 05:32:06 0° 162° (SSE) 4,931 12.0 -22.0°
